Temperature
22 22 22 22 22 22 21 21 21 21 21 21 21 20 20 20 20 20 20 20 19 19 19 19 19 19 19 18 18 18 18 18 18 18 18 18 18 18 18 18 17 17 17
23 22 22 22 22 21 21 21 21 21 21 20 20 20 20 20 20 20 20 20 20 20 19 19 19 19 19 19 19 19 19 18 18 18 18 18 18 18 18 18 18 18 18
24 23 22 22 22 21 21 21 21 21 21 20 20 20 20 20 20 20 20 20 20 20 20 19 19 19 19 19 19 19 19 18 18 18 18 18 18 18 18 18 18 18 17
24 23 22 22 22 22 21 21 21 21 21 20 20 20 20 20 20 20 20 20 20 20 20 20 20 20 19 19 19 19 19 18 18 18 18 18 18 18 18 18 18 18 18
24 23 23 22 22 22 21 21 21 21 21 21 20 20 20 20 20 20 20 20 20 20 20 20 20 20 20 20 19 19 19 18 18 18 18 18 18 18 18 18 18 18 18
24 23 23 23 22 22 21 21 21 21 21 21 21 20 20 20 20 20 20 20 20 20 20 20 20 20 20 20 19 19 19 18 18 18 18 18 18 18 18 18 18 18 18
24 23 23 23 22 22 22 21 21 21 21 21 21 20 20 20 20 20 20 20 20 20 20 20 20 20 20 20 19 19 18 18 18 18 18 18 18 18 18 18 18 18 18
24 23 23 23 22 22 22 21 21 21 21 21 20 20 20 20 20 20 20 20 20 20 20 20 20 20 20 20 19 19 19 18 18 18 18 18 18 18 18 18 18 18 18
24 24 23 23 22 22 22 21 21 21 21 21 21 20 20 20 20 20 20 20 20 20 20 20 20 20 20 20 20 19 19 18 18 18 18 18 18 18 18 18 18 18 18
23 23 23 23 23 22 22 22 21 21 21 21 21 20 20 20 20 20 20 20 20 20 20 20 20 20 20 20 20 19 19 19 18 18 18 18 18 18 18 18 18 19 18
23 23 23 23 23 22 22 21 21 21 21 21 20 20 20 20 20 20 20 19 19 19 19 19 19 19 19 19 19 19 19 19 19 18 18 18 18 18 18 18 18 18 18
22 22 22 22 22 22 21 21 21 20 20 20 20 20 20 20 19 19 19 19 19 19 19 19 19 19 19 19 19 19 19 19 19 19 18 18 18 18 18 18 18 18 18
22 22 22 21 21 21 21 21 20 20 20 20 20 19 19 19 19 19 19 19 18 18 18 18 18 18 19 19 19 19 19 19 19 19 18 18 18 18 18 18 18 18 18
22 22 21 21 21 21 20 20 20 19 19 19 19 19 19 19 19 18 18 18 18 18 18 18 18 18 18 18 18 18 18 18 19 18 18 18 18 18 18 18 18 18 18
22 21 21 20 20 20 19 19 19 19 19 19 18 18 18 18 18 18 18 18 18 18 18 18 18 18 18 17 18 18 18 18 18 18 18 18 18 18 18 18 17 18 18
21 21 20 20 20 19 19 19 19 18 18 18 18 18 18 18 18 18 18 18 18 18 17 17 17 17 17 17 17 18 18 18 18 18 18 18 18 18 18 18 18 17 18
21 21 20 20 19 19 19 19 19 19 19 18 18 18 18 18 17 17 17 17 17 17 17 17 17 17 17 17 17 17 17 17 17 18 18 18 18 18 18 17 17 17 17
20 20 19 19 19 19 19 19 19 19 18 18 18 18 18 17 17 17 17 17 17 17 17 17 16 16 16 16 17 17 17 17 17 17 17 17 18 18 18 17 17 17 17
19 19 19 19 19 19 19 19 18 18 18 18 18 17 17 17 17 17 17 17 17 17 16 16 16 16 16 16 16 16 17 17 17 17 17 17 17 18 17 17 17 17 17
18 19 19 19 19 19 18 18 18 18 18 17 17 17 17 17 17 17 17 16 16 16 16 16 16 16 16 16 16 16 16 17 17 17 17 17 17 17 17 17 17 17 17
18 19 19 19 19 19 18 18 18 17 17 17 16 16 16 16 16 16 16 16 16 16 16 15 15 15 15 16 15 16 16 17 17 17 17 17 17 17 17 17 17 17 17
19 19 19 19 18 18 18 18 17 17 17 16 16 16 16 15 15 15 15 15 15 15 15 15 15 15 15 15 15 15 16 16 17 17 17 17 18 17 17 17 17 17 17
19 19 18 18 18 18 18 17 17 16 16 16 16 15 15 15 15 15 15 15 15 14 15 14 15 14 15 15 15 15 15 16 17 17 17 17 18 17 17 17 17 17 17
19 18 18 18 18 17 17 17 16 16 16 15 15 15 14 14 14 14 14 14 14 14 14 14 14 14 14 14 15 15 15 15 16 16 17 17 17 17 17 17 17 17 17
19 18 18 18 17 17 16 16 16 15 15 15 14 14 14 14 14 14 14 14 14 14 14 14 14 14 14 14 14 14 15 15 15 16 16 17 17 17 17 17 17 17 17
19 18 18 17 17 16 16 15 15 15 14 14 14 14 13 13 13 13 13 13 13 13 13 13 13 13 13 14 14 14 14 14 15 15 16 16 17 17 17 17 17 17 17
Wind_Speed
11 15 22 23 23 22 21 21 20 20 20 20 20 20 20 20 19 19 19 18 17 16 15 14 14 14 14 15 16 16 17 17 18 18 18 17 16 16 17 18 17 16 18
16 19 23 23 23 23 22 21 20 20 19 19 19 18 18 18 18 17 17 16 16 15 14 13 13 13 14 14 15 15 16 16 17 18 17 16 15 15 16 17 16 16 18
20 19 22 23 23 23 22 21 20 20 19 19 18 18 17 17 16 16 16 15 15 14 14 13 13 13 13 13 14 14 14 15 16 16 15 13 13 14 16 17 17 17 17
20 18 20 23 23 23 22 21 21 20 19 18 18 17 17 16 15 15 14 14 14 14 13 13 12 12 12 12 12 12 12 13 13 14 12 11 13 16 18 17 17 17 17
16 17 21 24 23 23 22 21 21 20 19 18 18 17 16 16 15 14 14 13 13 13 13 12 12 12 11 11 11 10 10 10 10 9 9 10 13 16 17 17 16 16 16
14 16 21 24 23 22 22 21 20 19 19 18 18 17 16 16 15 14 14 13 13 13 12 12 12 11 11 10 10 9 9 8 7 5 7 11 14 17 17 17 16 16 16
14 13 19 23 22 22 21 20 19 19 18 18 17 16 15 15 15 14 13 13 13 13 12 12 12 11 11 10 10 9 8 8 6 4 8 13 15 18 18 17 16 16 16
16 12 17 21 21 20 19 19 18 18 17 17 16 15 15 14 14 14 14 13 13 13 13 13 13 12 12 11 10 9 8 7 6 4 8 13 17 19 19 18 17 16 16
14 11 11 16 18 19 19 18 17 17 16 16 15 15 14 14 14 14 14 14 13 14 14 14 14 14 13 13 12 11 10 9 6 4 7 12 18 21 20 20 18 18 17
11 10 9 11 13 14 16 17 17 16 16 15 15 14 14 14 14 14 14 14 14 15 15 15 15 15 15 14 14 13 12 10 9 7 7 11 18 22 22 21 20 19 18
10 9 9 8 10 12 13 15 16 16 15 14 13 14 13 12 12 13 14 16 16 17 17 17 17 17 16 16 16 15 13 10 10 9 9 12 19 23 23 23 22 21 20
13 11 10 10 9 10 11 12 11 12 12 12 11 11 11 11 11 12 14 17 18 19 19 19 19 18 17 14 15 16 13 12 11 10 11 14 19 24 25 25 24 23 22
13 13 11 11 9 9 6 8 8 8 9 10 11 12 11 10 10 11 10 13 16 18 16 16 17 15 14 13 12 12 13 13 12 12 12 14 19 23 26 26 26 25 24
11 11 10 9 9 8 6 6 6 5 5 6 10 12 9 5 5 6 6 8 10 11 11 11 10 12 13 14 13 12 13 12 12 12 13 15 18 23 25 25 25 25 25
8 8 8 8 7 6 6 4 4 4 4 6 7 9 9 5 5 4 4 5 7 9 8 7 8 9 9 12 13 12 10 13 13 14 14 17 20 23 26 27 26 26 25
6 6 6 6 6 6 6 5 3 3 3 3 3 5 6 6 4 4 4 3 4 7 8 8 8 9 8 8 10 9 10 12 13 15 15 15 19 23 26 27 27 26 26
5 5 6 6 6 6 5 5 3 3 3 3 3 3 3 4 4 3 3 3 4 6 7 6 7 7 8 9 9 10 8 9 11 14 15 15 15 21 25 27 28 27 27
6 6 6 6 6 5 5 4 3 3 3 3 3 3 3 2 1 1 2 3 4 5 4 5 5 6 7 7 7 8 8 8 10 12 14 14 14 16 21 26 27 28 29
6 6 7 7 6 5 5 4 4 3 3 2 3 3 2 2 1 0 2 3 4 3 4 5 4 4 5 7 8 8 8 8 9 10 11 13 15 16 17 22 27 29 30
6 6 7 7 6 5 5 4 4 4 3 2 2 1 1 1 1 1 2 3 3 3 4 4 4 4 5 6 8 9 7 8 7 9 11 10 13 17 18 18 20 24 30
6 7 6 6 5 4 4 3 3 2 2 2 2 1 1 1 1 1 2 3 3 3 5 5 4 4 5 4 4 5 5 7 8 9 9 9 10 13 16 17 17 18 20
5 5 5 5 4 4 2 1 1 0 1 1 2 3 3 3 2 2 2 3 3 3 4 4 3 3 3 3 3 2 3 3 5 10 8 9 10 8 10 15 16 17 17
5 6 6 5 4 3 3 2 3 3 3 3 3 3 4 5 4 4 3 3 3 2 3 4 4 4 3 2 3 3 3 4 3 3 6 8 8 8 9 8 12 16 18
6 6 6 6 4 3 3 3 3 2 1 2 2 3 5 5 5 4 3 3 3 2 2 3 2 2 3 3 2 3 3 3 2 2 2 3 6 7 8 9 10 12 17
7 6 6 5 4 4 4 4 3 2 3 3 3 4 5 5 5 5 4 3 3 3 3 3 3 2 2 3 3 2 3 3 2 2 2 2 1 3 5 7 7 7 12
5 5 4 4 4 4 3 4 4 4 4 4 4 4 4 4 4 5 4 4 4 4 4 3 3 2 2 2 2 2 2 2 2 2 3 3 3 3 3 4 5 6 8
Wind_Direction
154 159 152 146 141 138 134 130 126 124 121 119 118 117 117 117 117 118 120 121 122 123 123 122 119 116 115 114 115 117 118 119 120 119 118 117 117 118 118 116 113 113 115
151 156 152 148 144 142 139 136 133 130 128 126 125 124 124 123 123 124 125 126 126 126 126 126 124 123 121 121 121 122 124 124 124 123 120 117 118 122 122 120 119 122 121
146 151 151 148 146 145 143 141 139 137 135 133 132 132 131 131 131 132 132 132 132 131 131 130 129 128 128 127 127 128 129 128 128 125 121 115 117 126 128 126 124 124 124
145 147 150 149 147 148 147 145 144 143 141 141 140 139 139 139 140 140 140 140 139 138 138 138 137 136 136 135 135 135 136 137 137 133 130 128 124 126 129 130 130 128 127
140 144 151 150 149 150 150 149 149 148 148 148 148 148 149 149 149 149 149 149 149 148 148 148 147 146 147 147 147 147 147 148 150 145 147 143 136 136 136 136 136 135 133
138 144 151 150 150 152 152 153 153 153 154 154 155 157 157 157 157 158 159 160 159 158 159 159 158 159 161 162 163 163 164 166 166 159 162 158 152 149 145 145 144 143 142
138 144 151 150 151 153 155 156 157 158 159 160 161 163 164 165 165 166 168 169 170 169 170 170 170 171 174 178 180 181 183 186 186 176 168 166 165 159 155 154 152 151 149
142 143 150 152 153 154 156 159 160 162 164 165 167 169 171 172 174 175 177 179 181 180 180 181 183 183 186 191 196 200 204 207 202 182 177 176 177 169 164 161 160 160 158
142 143 146 153 156 158 160 162 164 166 168 170 172 174 177 180 182 186 187 190 193 192 192 192 194 195 197 200 206 212 218 222 225 208 189 186 188 179 173 170 168 168 167
141 147 145 150 154 158 162 167 170 172 174 176 178 182 186 190 194 197 197 200 203 204 203 203 203 204 206 208 212 218 224 229 233 228 210 201 196 186 181 177 176 176 175
146 154 155 154 155 157 164 174 177 180 182 184 187 192 196 200 204 208 210 211 213 214 212 212 212 211 212 215 218 223 227 229 228 233 224 213 203 195 188 184 182 182 182
161 168 170 168 165 165 175 177 182 185 188 190 193 198 202 204 211 217 222 223 223 222 221 220 220 218 216 217 221 224 226 226 228 232 230 222 211 203 196 190 188 186 187
169 171 175 175 173 176 180 170 181 189 191 198 202 206 207 208 218 225 225 230 230 228 225 226 225 223 220 216 216 218 222 224 228 230 231 226 216 208 203 196 194 192 191
161 170 169 168 171 177 167 166 177 188 192 199 209 210 206 212 223 229 229 229 226 222 218 220 220 221 225 224 219 219 223 223 224 227 231 232 222 210 206 202 199 198 196
139 153 155 156 156 151 146 152 157 173 178 192 200 204 202 205 223 232 237 237 233 225 217 217 219 221 222 226 224 221 222 222 221 224 228 230 223 213 208 207 206 205 203
117 138 136 128 129 128 129 131 136 141 138 146 170 192 199 202 211 224 241 248 243 233 227 223 225 228 226 228 230 226 223 223 223 224 226 229 223 214 211 211 210 210 209
97 112 117 114 103 109 109 110 114 116 112 111 123 131 160 190 209 225 244 256 252 247 241 238 235 234 234 231 234 233 228 224 222 223 224 227 224 219 214 214 213 213 213
87 85 83 100 88 92 95 96 90 80 81 87 91 96 101 115 134 234 252 260 265 261 245 241 237 234 234 229 231 235 232 227 224 222 221 223 221 220 218 219 217 217 216
91 93 86 80 80 73 73 69 68 65 60 60 67 73 73 66 67 238 263 269 280 276 267 261 248 231 240 239 239 237 234 229 226 224 218 218 217 215 213 218 219 220 220
93 89 84 75 72 64 56 51 46 43 36 38 45 66 80 36 13 332 280 284 286 282 276 266 260 243 239 240 251 249 237 232 226 222 220 217 216 216 213 214 218 224 222
89 83 80 78 65 61 55 50 42 17 358 358 332 327 339 321 316 298 294 297 299 284 274 265 257 255 251 229 236 255 255 240 233 228 222 215 214 214 212 211 212 215 219
102 98 95 93 89 86 95 103 119 122 328 327 341 340 327 309 295 284 277 283 291 293 293 279 262 255 259 216 200 224 261 268 245 233 219 216 215 207 209 210 207 208 209
141 149 144 146 135 127 115 87 53 38 20 5 349 330 316 307 287 275 264 262 276 283 293 290 271 249 251 254 207 199 206 231 254 253 224 218 209 204 207 203 205 206 207
176 171 165 165 160 154 134 119 123 133 231 255 267 286 305 309 298 282 266 252 250 256 288 301 308 265 244 250 258 235 228 212 203 260 287 231 211 203 201 207 205 204 205
184 178 179 175 182 185 171 164 162 192 225 252 278 299 304 305 303 291 268 246 239 241 256 283 304 303 273 251 240 241 244 248 218 192 232 250 244 221 204 202 198 198 199
191 186 186 186 214 221 208 199 196 215 237 262 281 288 291 293 296 296 276 248 238 235 241 253 268 289 295 287 258 227 215 224 227 196 203 210 218 241 222 204 197 194 194
Height
1514 1518 1521 1524 1525 1527 1529 1531 1533 1534 1536 1538 1540 1541 1543 1544 1545 1546 1548 1549 1550 1551 1551 1552 1553 1553 1554 1555 1555 1556 1556 1557 1557 1558 1558 1559 1560 1560 1561 1562 1562 1563 1564
1512 1517 1521 1523 1525 1527 1529 1531 1533 1535 1537 1538 1540 1542 1543 1544 1546 1547 1548 1549 1550 1551 1552 1553 1554 1554 1555 1555 1556 1557 1557 1558 1559 1559 1560 1561 1562 1562 1563 1563 1564 1565 1566
1512 1516 1520 1523 1526 1528 1529 1531 1533 1535 1537 1539 1540 1542 1543 1545 1546 1547 1548 1549 1551 1552 1553 1553 1554 1555 1556 1556 1557 1558 1559 1560 1560 1561 1562 1563 1564 1564 1565 1565 1566 1567 1568
1513 1516 1520 1523 1526 1528 1530 1532 1534 1535 1537 1539 1540 1542 1543 1545 1546 1548 1549 1550 1551 1552 1553 1554 1555 1556 1557 1557 1558 1559 1560 1561 1562 1562 1563 1564 1565 1565 1566 1567 1567 1568 1570
1514 1517 1520 1523 1526 1528 1530 1532 1534 1535 1537 1539 1540 1542 1543 1545 1546 1548 1549 1550 1551 1552 1553 1554 1555 1556 1557 1558 1559 1560 1561 1561 1562 1563 1564 1565 1566 1566 1567 1568 1569 1570 1571
1515 1518 1521 1524 1526 1528 1530 1532 1534 1535 1537 1539 1540 1542 1543 1544 1546 1547 1548 1550 1551 1552 1553 1554 1555 1556 1557 1558 1559 1560 1561 1562 1563 1563 1564 1565 1566 1567 1568 1569 1570 1571 1572
1516 1519 1522 1524 1527 1529 1531 1532 1534 1536 1537 1539 1540 1541 1543 1544 1546 1547 1548 1549 1550 1551 1552 1553 1555 1556 1557 1558 1559 1560 1561 1562 1563 1563 1564 1565 1567 1568 1569 1569 1570 1571 1573
1517 1520 1523 1525 1527 1529 1531 1533 1534 1536 1537 1538 1540 1541 1543 1544 1545 1546 1547 1549 1550 1551 1552 1553 1554 1555 1556 1557 1558 1560 1561 1561 1562 1563 1564 1565 1566 1568 1569 1570 1571 1572 1573
1519 1521 1524 1526 1528 1530 1532 1533 1535 1536 1537 1538 1539 1541 1542 1543 1544 1545 1546 1548 1549 1550 1551 1552 1553 1554 1555 1556 1557 1558 1559 1560 1561 1562 1563 1564 1566 1567 1568 1569 1570 1572 1573
1521 1523 1524 1526 1528 1530 1531 1533 1535 1536 1537 1538 1539 1540 1541 1542 1543 1544 1545 1546 1547 1548 1549 1550 1551 1552 1553 1554 1555 1556 1558 1558 1559 1560 1561 1562 1564 1565 1567 1568 1570 1571 1572
1521 1523 1524 1526 1528 1530 1531 1533 1535 1536 1537 1538 1538 1539 1540 1541 1542 1543 1543 1544 1545 1546 1547 1548 1549 1550 1551 1551 1553 1554 1555 1556 1557 1558 1559 1560 1562 1564 1565 1567 1568 1570 1571
1520 1522 1524 1525 1527 1530 1531 1533 1534 1535 1536 1537 1537 1538 1539 1540 1540 1541 1542 1542 1543 1544 1545 1545 1546 1547 1547 1548 1549 1550 1552 1553 1554 1555 1556 1558 1559 1561 1563 1565 1567 1568 1569
1521 1522 1524 1525 1527 1529 1530 1532 1533 1534 1535 1536 1536 1537 1537 1538 1538 1539 1539 1539 1540 1541 1542 1542 1543 1543 1544 1545 1545 1546 1548 1549 1550 1552 1553 1554 1556 1558 1560 1562 1564 1565 1567
1520 1523 1524 1526 1527 1528 1530 1531 1532 1533 1533 1534 1535 1535 1536 1536 1536 1536 1536 1536 1537 1537 1538 1538 1539 1539 1540 1541 1541 1542 1543 1544 1546 1547 1549 1550 1552 1554 1556 1558 1560 1562 1564
1519 1522 1523 1525 1526 1527 1528 1530 1531 1531 1532 1532 1533 1533 1533 1534 1534 1534 1534 1533 1533 1534 1534 1534 1534 1535 1535 1536 1537 1537 1538 1539 1541 1542 1544 1546 1548 1549 1551 1553 1556 1559 1561
1519 1521 1523 1524 1525 1526 1527 1528 1529 1529 1529 1530 1530 1530 1531 1530 1530 1530 1530 1529 1529 1529 1529 1529 1529 1530 1530 1531 1531 1532 1532 1534 1535 1537 1539 1541 1543 1545 1546 1549 1551 1554 1556
1518 1520 1522 1524 1525 1526 1526 1527 1527 1528 1528 1528 1528 1527 1527 1527 1527 1527 1526 1525 1525 1524 1524 1524 1523 1524 1524 1525 1525 1527 1528 1528 1530 1532 1534 1535 1537 1539 1541 1544 1546 1549 1551
1519 1520 1521 1523 1524 1525 1526 1526 1526 1526 1526 1526 1525 1525 1524 1524 1524 1523 1522 1521 1520 1519 1518 1517 1517 1516 1517 1518 1519 1520 1521 1523 1524 1526 1528 1529 1531 1533 1535 1538 1541 1544 1546
1521 1522 1523 1524 1523 1523 1523 1524 1524 1524 1524 1524 1523 1523 1522 1521 1520 1519 1518 1516 1515 1514 1512 1512 1511 1510 1511 1512 1513 1514 1515 1516 1518 1520 1521 1523 1525 1528 1530 1533 1535 1539 1542
1522 1523 1523 1523 1523 1522 1523 1523 1523 1522 1522 1521 1521 1520 1519 1518 1517 1515 1514 1512 1510 1508 1507 1506 1505 1505 1505 1505 1506 1507 1509 1510 1511 1513 1515 1517 1519 1522 1525 1527 1530 1533 1536
1523 1523 1523 1523 1523 1523 1523 1522 1522 1521 1521 1520 1519 1518 1517 1515 1514 1512 1510 1508 1506 1504 1502 1501 1500 1499 1499 1500 1501 1501 1502 1504 1505 1507 1509 1511 1514 1516 1519 1521 1524 1528 1531
1523 1523 1524 1524 1524 1523 1523 1522 1521 1520 1519 1518 1517 1516 1514 1512 1511 1509 1507 1505 1503 1500 1498 1496 1495 1495 1495 1495 1496 1496 1497 1499 1499 1501 1503 1505 1508 1511 1513 1516 1519 1522 1526
1524 1524 1524 1524 1523 1523 1522 1521 1520 1519 1518 1516 1514 1513 1511 1509 1508 1506 1504 1502 1500 1498 1496 1494 1492 1492 1491 1491 1492 1493 1493 1492 1493 1495 1497 1500 1503 1506 1508 1511 1514 1517 1520
1523 1523 1523 1523 1522 1521 1520 1519 1517 1516 1515 1513 1511 1509 1508 1506 1504 1502 1500 1498 1497 1495 1493 1491 1490 1488 1488 1487 1488 1488 1490 1490 1490 1490 1492 1495 1498 1501 1504 1506 1509 1512 1515
1522 1521 1521 1520 1520 1519 1517 1516 1514 1513 1511 1509 1507 1505 1503 1502 1500 1498 1497 1495 1494 1492 1490 1489 1487 1486 1485 1484 1484 1485 1486 1486 1486 1487 1488 1490 1493 1496 1499 1502 1504 1507 1510
1520 1519 1519 1518 1517 1516 1514 1512 1511 1509 1507 1505 1503 1501 1499 1497 1496 1494 1493 1491 1490 1489 1487 1486 1485 1483 1482 1482 1481 1482 1482 1483 1483 1484 1485 1487 1489 1492 1495 1497 1500 1503 1506